sat.trackr.live / text

‹ back to catalog

STARLINK-5938

NORAD 55960 · 2023-037AY

PAYLOAD ACTIVE UNKNOWN

§ Identity

Operator
Country
US
Launch date
2023-03-17
Launch site
AFWTR
Launch vehicle
Mass (kg)
RCS (m²)

Purposes: comms

External: N2YO · Heavens-Above · Gunter

§ Orbital elements

Epoch: 2026-09-20T21:49:41.022912Z

Period
96.11 min
Inclination
69.9988°
Eccentricity
0.0002674
Mean motion
14.98332406 rev/d
Perigee alt
570.2 km
Apogee alt
573.9 km
Semi-major
6,950.2 km
B*
1.6462e-4
RAAN
132.2860°
Arg perigee
269.7126°
Mean anomaly
90.3726°
Rev number
19,371

§ Raw data

STARLINK-59381 55960U 23037AY  26263.90950258  .00001872  00000+0  16462-3 0  99962 55960  69.9988 132.2860 0002674 269.7126  90.3726 14.98332406193718

JSON: /api/v1/satellites/55960 · /tle

For live sub-satellite position, see the globe view (requires WebGL).

§ Visibility from observer

Set your observer location to see the next 7 days of passes ≥ 10°. The values pass through the URL so the page stays shareable.

No JS? Fill the form by hand. The geolocation button needs JavaScript.